Simultaneous Nadir Overpasses (SNOs) Predictions

Prediction of SNOs between AQUA and GOES-15 Satellite Orbit:

Table of predicted SNOs for the next 14.0 days since TLE Epoch: 11/16/2024
Index Date Time (AQUA) AQUA Lat,Lon GOES-15 Lat,Lon Distance(km) Time Diff (sec)
1 11/17/2024 10:03:27 0.62, 64.68 -0.02, 61.66 343.60 80
2 11/17/2024 22:23:06 0.35, 59.92 0.00, 61.59 189.00 80
3 11/19/2024 22:04:37 -0.58, 64.45 0.01, 61.63 320.63 80
4 11/20/2024 10:24:23 -0.46, 59.67 0.01, 61.73 234.50 80
5 11/22/2024 10:05:53 0.49, 64.20 0.00, 61.77 276.42 80
6 11/22/2024 22:25:31 0.44, 59.44 -0.02, 61.68 254.45 80
7 11/24/2024 22:07:00 -0.48, 63.98 -0.01, 61.72 256.54 80
8 11/25/2024 10:26:45 -0.51, 59.20 0.03, 61.83 299.60 80
9 11/27/2024 10:08:12 0.44, 63.74 0.02, 61.88 212.34 80
10 11/27/2024 22:27:49 0.58, 58.99 -0.04, 61.78 316.98 80
11 11/29/2024 22:09:15 -0.40, 63.54 -0.02, 61.83 194.31 80
